Weather History for KSET - April, 2013

Change the Weather History Date:

Thursday, April 4, 2013

  Actual Average (KSTL) Record (KSTL)
Temperature  
Mean Temperature 47 °F 53 °F  
Max Temperature 60 °F 63 °F 87 °F (1929)
Min Temperature 34 °F 43 °F 23 °F (1975)
Degree Days  
Heating Degree Days 18 13  
Month to date heating degree days 53  
Since 1 July heating degree days 4239  
Cooling Degree Days 0 1  
Month to date cooling degree days 4  
Year to date cooling degree days 11  
Moisture  
Dew Point 25 °F    
Average Humidity 47    
Maximum Humidity 70    
Minimum Humidity 26    
Precipitation  
Precipitation 0.00 in 0.11 in 2.16 in (1892)
Month to date precipitation 0.48  
Year to date precipitation 8.44  
Snow  
Snow 0.00 in 0.00 in 2.00 in (1899)
Month to date snowfall 0.1  
Since 1 July snowfall 17.4  
Snow Depth -    
Sea Level Pressure  
Sea Level Pressure 30.13 in    
Wind  
Wind Speed 5 mph (ENE)    
Max Wind Speed 12 mph    
Max Gust Speed -    
Visibility 10 miles    
Events      
T = Trace of Precipitation, MM = Missing Value Source: NWS Daily Summary

Daily Weather History Graph

Daily Weather History Graph

Search for Another Location

Airport or City:

Trip Planner

Search our weather history database for the weather conditions in past years. The results will help you decide how hot, cold, wet, or windy it might be!

Date:

Astronomy

Apr. 04, 2013 Rise Set
Actual Time 6:41 AM CDT 7:28 PM CDT
Civil Twilight 6:14 AM CDT 7:55 PM CDT
Nautical Twilight 5:42 AM CDT 8:27 PM CDT
Astronomical Twilight 5:09 AM CDT 9:00 PM CDT
Moon 3:05 AM CDT (4/4) 1:49 PM CDT (4/4)
Length of Visible Light 13h 41m
Length of Day
12h 47m
Waning Crescent, 33% of the Moon is Illuminated
Apr 4
Waning Crescent
Apr 10
New
Apr 18
First Quarter
Apr 25
Full
May 2
Last Quarter

Hourly Weather History & Observations

Time (CDT) Temp. Windchill Dew Point Humidity Pressure Visibility Wind Dir Wind Speed Gust Speed Precip Events Conditions
12:54 AM 39.0 °F 34.0 °F 27.0 °F 62% 30.25 in 10.0 mi East 6.9 mph - N/A   Clear
1:54 AM 37.9 °F 34.4 °F 28.0 °F 68% 30.24 in 10.0 mi ENE 4.6 mph - N/A   Clear
2:54 AM 37.9 °F 35.5 °F 25.0 °F 60% 30.22 in 10.0 mi NE 3.5 mph - N/A   Clear
3:54 AM 39.0 °F 34.8 °F 24.1 °F 55% 30.20 in 10.0 mi NE 5.8 mph - N/A   Clear
4:54 AM 36.0 °F 32.1 °F 24.1 °F 62% 30.19 in 10.0 mi NE 4.6 mph - N/A   Clear
5:54 AM 34.0 °F 29.8 °F 25.0 °F 70% 30.20 in 10.0 mi NNE 4.6 mph - N/A   Clear
6:54 AM 34.0 °F 29.8 °F 24.1 °F 67% 30.21 in 10.0 mi NNE 4.6 mph - N/A   Clear
7:54 AM 39.0 °F 35.7 °F 26.1 °F 60% 30.21 in 10.0 mi NE 4.6 mph - N/A   Clear
8:54 AM 43.0 °F 40.3 °F 25.0 °F 49% 30.19 in 10.0 mi East 4.6 mph - N/A   Clear
9:54 AM 46.0 °F - 24.1 °F 42% 30.17 in 10.0 mi Calm Calm - N/A   Clear
10:54 AM 50.0 °F - 19.9 °F 31% 30.16 in 10.0 mi Calm Calm - N/A   Clear
11:54 AM 53.1 °F - 21.0 °F 29% 30.14 in 10.0 mi Variable 3.5 mph - N/A   Clear
12:54 PM 54.0 °F - 21.9 °F 29% 30.12 in 10.0 mi East 4.6 mph - N/A   Clear
1:54 PM 57.0 °F - 26.1 °F 30% 30.09 in 10.0 mi East 10.4 mph - N/A   Clear
2:54 PM 57.0 °F - 23.0 °F 27% 30.07 in 10.0 mi Variable 6.9 mph - N/A   Clear
3:54 PM 60.1 °F - 27.0 °F 28% 30.05 in 10.0 mi NNE 11.5 mph - N/A   Clear
4:54 PM 59.0 °F - 24.1 °F 26% 30.04 in 10.0 mi East 4.6 mph - N/A   Clear
5:54 PM 59.0 °F - 25.0 °F 27% 30.04 in 10.0 mi East 4.6 mph - N/A   Clear
6:54 PM 57.0 °F - 23.0 °F 27% 30.04 in 10.0 mi Calm Calm - N/A   Clear
7:54 PM 53.1 °F - 25.0 °F 34% 30.04 in 10.0 mi Calm Calm - N/A   Clear
8:54 PM 46.9 °F - 28.0 °F 48% 30.06 in 10.0 mi Calm Calm - N/A   Clear
9:54 PM 45.0 °F - 28.0 °F 52% 30.06 in 10.0 mi Calm Calm - N/A   Clear
10:54 PM 41.0 °F 39.0 °F 32.0 °F 70% 30.06 in 10.0 mi WSW 3.5 mph - N/A   Clear
11:54 PM 41.0 °F - 30.9 °F 67% 30.06 in 10.0 mi Calm Calm - N/A   Clear